Time,TemperatureF,DewpointF,PressureIn,WindDirection,WindDirectionDegrees,WindSpeedMPH,WindSpeedGustMPH,Humidity,HourlyPrecipIn,Conditions,Clouds,dailyrainin,SoftwareType,DateUTC
2017-05-22 00:00:00,66.3,15.6,30.08,WNW,302,4.0,4.0,14,0.00,,,0.00,Wunderground v.1.15,2017-05-22 06:00:00,
2017-05-22 00:06:00,66.8,16.0,30.08,NW,309,4.0,10.0,14,0.00,,,0.00,Wunderground v.1.15,2017-05-22 06:06:00,
2017-05-22 00:12:00,67.0,14.5,30.07,NW,306,4.0,10.0,13,0.00,,,0.00,Wunderground v.1.15,2017-05-22 06:12:00,
2017-05-22 00:18:00,68.1,15.3,30.07,WNW,303,5.0,10.0,13,0.00,,,0.00,Wunderground v.1.15,2017-05-22 06:18:00,
2017-05-22 00:24:00,69.5,14.6,30.07,WNW,303,5.0,10.0,12,0.00,,,0.00,Wunderground v.1.15,2017-05-22 06:24:00,
2017-05-22 00:30:00,69.6,14.7,30.07,WNW,292,5.0,10.0,12,0.00,,,0.00,Wunderground v.1.15,2017-05-22 06:30:00,
2017-05-22 00:35:00,68.7,14.0,30.07,WNW,288,4.0,10.0,12,0.00,,,0.00,Wunderground v.1.15,2017-05-22 06:35:00,
2017-05-22 00:41:00,66.9,14.4,30.07,WNW,288,3.0,10.0,13,0.00,,,0.00,Wunderground v.1.15,2017-05-22 06:41:00,
2017-05-22 00:47:00,65.8,15.2,30.07,NW,314,2.0,10.0,14,0.00,,,0.00,Wunderground v.1.15,2017-05-22 06:47:00,
2017-05-22 00:53:00,66.0,15.4,30.07,NW,323,3.0,10.0,14,0.00,,,0.00,Wunderground v.1.15,2017-05-22 06:53:00,
2017-05-22 00:58:00,66.0,15.4,30.07,WNW,297,4.0,10.0,14,0.00,,,0.00,Wunderground v.1.15,2017-05-22 06:58:00,
2017-05-22 01:04:00,66.3,15.6,30.08,NW,315,4.0,10.0,14,0.00,,,0.00,Wunderground v.1.15,2017-05-22 07:04:00,
2017-05-22 01:10:00,66.8,16.0,30.08,NW,321,4.0,4.0,14,0.00,,,0.00,Wunderground v.1.15,2017-05-22 07:10:00,
2017-05-22 01:16:00,66.6,15.9,30.08,WNW,288,3.0,10.0,14,0.00,,,0.00,Wunderground v.1.15,2017-05-22 07:16:00,
2017-05-22 01:22:00,66.2,15.5,30.08,NW,326,2.0,10.0,14,0.00,,,0.00,Wunderground v.1.15,2017-05-22 07:22:00,
2017-05-22 01:28:00,66.8,14.3,30.08,NW,322,2.0,10.0,13,0.00,,,0.00,Wunderground v.1.15,2017-05-22 07:28:00,
2017-05-22 01:33:00,66.3,15.6,30.08,NW,305,1.0,10.0,14,0.00,,,0.00,Wunderground v.1.15,2017-05-22 07:33:00,
2017-05-22 01:39:00,65.9,15.3,30.08,NW,305,0.0,10.0,14,0.00,,,0.00,Wunderground v.1.15,2017-05-22 07:39:00,
2017-05-22 01:45:00,64.2,15.5,30.08,NNE,16,1.0,10.0,15,0.00,,,0.00,Wunderground v.1.15,2017-05-22 07:45:00,
2017-05-22 01:51:00,64.1,15.4,30.08,NNE,16,1.0,10.0,15,0.00,,,0.00,Wunderground v.1.15,2017-05-22 07:51:00,
2017-05-22 01:56:00,65.1,16.2,30.08,NNE,16,0.0,10.0,15,0.00,,,0.00,Wunderground v.1.15,2017-05-22 07:56:00,
2017-05-22 02:02:00,64.9,14.5,30.08,NNE,16,0.0,10.0,14,0.00,,,0.00,Wunderground v.1.15,2017-05-22 08:02:00,
2017-05-22 02:08:00,63.8,15.2,30.08,SW,228,0.0,10.0,15,0.00,,,0.00,Wunderground v.1.15,2017-05-22 08:08:00,
2017-05-22 02:14:00,62.4,14.1,30.08,SSW,207,0.0,10.0,15,0.00,,,0.00,Wunderground v.1.15,2017-05-22 08:14:00,
2017-05-22 02:20:00,60.7,14.2,30.08,SW,221,1.0,10.0,16,0.00,,,0.00,Wunderground v.1.15,2017-05-22 08:20:00,
2017-05-22 02:26:00,59.7,14.8,30.08,SW,224,1.0,10.0,17,0.00,,,0.00,Wunderground v.1.15,2017-05-22 08:26:00,
2017-05-22 02:32:00,59.0,14.2,30.08,WSW,240,1.0,10.0,17,0.00,,,0.00,Wunderground v.1.15,2017-05-22 08:32:00,
2017-05-22 02:38:00,58.0,13.4,30.08,WSW,238,1.0,10.0,17,0.00,,,0.00,Wunderground v.1.15,2017-05-22 08:38:00,
2017-05-22 02:44:00,57.6,14.3,30.08,SW,229,0.0,10.0,18,0.00,,,0.00,Wunderground v.1.15,2017-05-22 08:44:00,
2017-05-22 02:50:00,56.8,13.7,30.08,WSW,239,0.0,10.0,18,0.00,,,0.00,Wunderground v.1.15,2017-05-22 08:50:00,
2017-05-22 02:56:00,55.9,14.2,30.08,WSW,252,0.0,10.0,19,0.00,,,0.00,Wunderground v.1.15,2017-05-22 08:56:00,
2017-05-22 03:02:00,55.9,14.2,30.08,WSW,249,1.0,10.0,19,0.00,,,0.00,Wunderground v.1.15,2017-05-22 09:02:00,
2017-05-22 03:08:00,57.3,14.1,30.08,WSW,253,2.0,10.0,18,0.00,,,0.00,Wunderground v.1.15,2017-05-22 09:08:00,
2017-05-22 03:14:00,57.5,13.0,30.08,WSW,247,2.0,10.0,17,0.00,,,0.00,Wunderground v.1.15,2017-05-22 09:14:00,
2017-05-22 03:20:00,56.3,13.3,30.08,WSW,246,2.0,2.0,18,0.00,,,0.00,Wunderground v.1.15,2017-05-22 09:20:00,
2017-05-22 03:26:00,55.5,13.8,30.08,WSW,246,1.0,10.0,19,0.00,,,0.00,Wunderground v.1.15,2017-05-22 09:26:00,
2017-05-22 03:32:00,54.8,13.3,30.08,WSW,246,0.0,10.0,19,0.00,,,0.00,Wunderground v.1.15,2017-05-22 09:32:00,
2017-05-22 03:37:00,54.6,13.1,30.08,WSW,246,0.0,10.0,19,0.00,,,0.00,Wunderground v.1.15,2017-05-22 09:37:00,
2017-05-22 03:43:00,56.1,15.5,30.07,WSW,250,1.0,10.0,20,0.00,,,0.00,Wunderground v.1.15,2017-05-22 09:43:00,
2017-05-22 03:49:00,55.9,14.2,30.07,WSW,249,1.0,10.0,19,0.00,,,0.00,Wunderground v.1.15,2017-05-22 09:49:00,
2017-05-22 03:54:00,56.9,13.8,30.07,WSW,249,1.0,10.0,18,0.00,,,0.00,Wunderground v.1.15,2017-05-22 09:54:00,
2017-05-22 04:00:00,57.6,14.3,30.07,WSW,255,2.0,10.0,18,0.00,,,0.00,Wunderground v.1.15,2017-05-22 10:00:00,
2017-05-22 04:05:00,57.8,14.5,30.07,West,261,2.0,10.0,18,0.00,,,0.00,Wunderground v.1.15,2017-05-22 10:05:00,
2017-05-22 04:11:00,57.9,14.6,30.07,West,262,3.0,10.0,18,0.00,,,0.00,Wunderground v.1.15,2017-05-22 10:11:00,
2017-05-22 04:17:00,57.8,15.7,30.06,West,275,2.0,10.0,19,0.00,,,0.00,Wunderground v.1.15,2017-05-22 10:17:00,
2017-05-22 04:23:00,58.9,15.4,30.06,West,276,2.0,10.0,18,0.00,,,0.00,Wunderground v.1.15,2017-05-22 10:23:00,
2017-05-22 04:28:00,59.4,15.8,30.06,West,278,2.0,10.0,18,0.00,,,0.00,Wunderground v.1.15,2017-05-22 10:28:00,
2017-05-22 04:34:00,60.0,16.3,30.06,West,281,2.0,10.0,18,0.00,,,0.00,Wunderground v.1.15,2017-05-22 10:34:00,
2017-05-22 04:35:00,60.1,16.4,30.06,West,281,2.0,10.0,18,0.00,,,0.00,Wunderground v.1.15,2017-05-22 10:35:00,
2017-05-22 04:41:00,60.7,16.9,30.06,West,281,2.0,10.0,18,0.00,,,0.00,Wunderground v.1.15,2017-05-22 10:41:00,
2017-05-22 04:47:00,61.1,15.9,30.07,West,281,1.0,10.0,17,0.00,,,0.00,Wunderground v.1.15,2017-05-22 10:47:00,
2017-05-22 04:52:00,60.1,16.4,30.06,West,281,1.0,10.0,18,0.00,,,0.00,Wunderground v.1.15,2017-05-22 10:52:00,
2017-05-22 04:58:00,58.9,15.4,30.07,WNW,286,0.0,10.0,18,0.00,,,0.00,Wunderground v.1.15,2017-05-22 10:58:00,
2017-05-22 05:04:00,57.8,15.7,30.06,WNW,286,0.0,10.0,19,0.00,,,0.00,Wunderground v.1.15,2017-05-22 11:04:00,
2017-05-22 05:09:00,56.8,14.9,30.07,WNW,286,0.0,10.0,19,0.00,,,0.00,Wunderground v.1.15,2017-05-22 11:09:00,
2017-05-22 05:15:00,56.6,14.8,30.07,WNW,285,0.0,10.0,19,0.00,,,0.00,Wunderground v.1.15,2017-05-22 11:15:00,
2017-05-22 05:21:00,56.0,15.4,30.07,SSE,157,0.0,10.0,20,0.00,,,0.00,Wunderground v.1.15,2017-05-22 11:21:00,
2017-05-22 05:27:00,55.4,14.9,30.07,SSW,207,0.0,10.0,20,0.00,,,0.00,Wunderground v.1.15,2017-05-22 11:27:00,
2017-05-22 05:33:00,55.0,15.7,30.07,South,172,1.0,10.0,21,0.00,,,0.00,Wunderground v.1.15,2017-05-22 11:33:00,
2017-05-22 05:39:00,54.6,15.4,30.07,SSW,202,1.0,10.0,21,0.00,,,0.00,Wunderground v.1.15,2017-05-22 11:39:00,
2017-05-22 05:45:00,55.0,15.7,30.07,SSW,203,2.0,10.0,21,0.00,,,0.00,Wunderground v.1.15,2017-05-22 11:45:00,
2017-05-22 05:51:00,55.3,16.0,30.07,SSW,205,2.0,10.0,21,0.00,,,0.00,Wunderground v.1.15,2017-05-22 11:51:00,
2017-05-22 05:57:00,55.8,15.3,30.07,SW,219,2.0,10.0,20,0.00,,,0.00,Wunderground v.1.15,2017-05-22 11:57:00,
2017-05-22 06:03:00,55.0,14.6,30.07,SW,232,1.0,10.0,20,0.00,,,0.00,Wunderground v.1.15,2017-05-22 12:03:00,
2017-05-22 06:08:00,54.8,15.6,30.07,SW,232,0.0,10.0,21,0.00,,,0.00,Wunderground v.1.15,2017-05-22 12:08:00,
2017-05-22 06:14:00,54.4,15.2,30.07,SW,232,0.0,10.0,21,0.00,,,0.00,Wunderground v.1.15,2017-05-22 12:14:00,
2017-05-22 06:20:00,54.5,15.3,30.08,South,172,0.0,10.0,21,0.00,,,0.00,Wunderground v.1.15,2017-05-22 12:20:00,
2017-05-22 06:26:00,54.1,15.0,30.08,SSW,207,1.0,10.0,21,0.00,,,0.00,Wunderground v.1.15,2017-05-22 12:26:00,
2017-05-22 06:32:00,54.1,16.0,30.08,SW,214,1.0,10.0,22,0.00,,,0.00,Wunderground v.1.15,2017-05-22 12:32:00,
2017-05-22 06:37:00,54.5,15.3,30.08,SW,236,1.0,10.0,21,0.00,,,0.00,Wunderground v.1.15,2017-05-22 12:37:00,
2017-05-22 06:43:00,55.6,16.2,30.08,South,188,0.0,10.0,21,0.00,,,0.00,Wunderground v.1.15,2017-05-22 12:43:00,
2017-05-22 06:49:00,57.3,16.5,30.08,SSW,197,0.0,10.0,20,0.00,,,0.00,Wunderground v.1.15,2017-05-22 12:49:00,
2017-05-22 06:55:00,58.8,16.6,30.08,SW,231,0.0,10.0,19,0.00,,,0.00,Wunderground v.1.15,2017-05-22 12:55:00,
2017-05-22 07:01:00,60.2,17.7,30.09,SW,231,0.0,10.0,19,0.00,,,0.00,Wunderground v.1.15,2017-05-22 13:01:00,
2017-05-22 07:06:00,61.1,18.5,30.09,SW,231,0.0,10.0,19,0.00,,,0.00,Wunderground v.1.15,2017-05-22 13:06:00,
2017-05-22 07:12:00,62.4,18.3,30.09,SW,231,0.0,10.0,18,0.00,,,0.00,Wunderground v.1.15,2017-05-22 13:12:00,
2017-05-22 07:19:00,63.9,19.5,30.09,SW,231,0.0,10.0,18,0.00,,,0.00,Wunderground v.1.15,2017-05-22 13:19:00,
2017-05-22 07:24:00,65.1,19.2,30.09,SW,231,0.0,10.0,17,0.00,,,0.00,Wunderground v.1.15,2017-05-22 13:24:00,
2017-05-22 07:30:00,66.4,18.8,30.09,SW,231,0.0,10.0,16,0.00,,,0.00,Wunderground v.1.15,2017-05-22 13:30:00,
2017-05-22 07:36:00,68.4,18.9,30.10,SW,231,0.0,10.0,15,0.00,,,0.00,Wunderground v.1.15,2017-05-22 13:36:00,
2017-05-22 07:42:00,70.5,20.6,30.10,SW,231,0.0,10.0,15,0.00,,,0.00,Wunderground v.1.15,2017-05-22 13:42:00,
2017-05-22 07:47:00,70.2,20.3,30.10,East,79,0.0,10.0,15,0.00,,,0.00,Wunderground v.1.15,2017-05-22 13:47:00,
2017-05-22 07:53:00,67.7,19.8,30.10,ESE,109,1.0,10.0,16,0.00,,,0.00,Wunderground v.1.15,2017-05-22 13:53:00,
2017-05-22 07:58:00,67.8,19.9,30.10,ESE,112,0.0,10.0,16,0.00,,,0.00,Wunderground v.1.15,2017-05-22 13:58:00,
2017-05-22 08:04:00,67.9,20.0,30.10,East,101,0.0,10.0,16,0.00,,,0.00,Wunderground v.1.15,2017-05-22 14:04:00,
2017-05-22 08:10:00,68.1,20.2,30.10,ESE,103,0.0,10.0,16,0.00,,,0.00,Wunderground v.1.15,2017-05-22 14:10:00,
2017-05-22 08:16:00,69.3,21.1,30.10,SE,134,0.0,10.0,16,0.00,,,0.00,Wunderground v.1.15,2017-05-22 14:16:00,
2017-05-22 08:22:00,71.1,19.4,30.10,SE,129,0.0,10.0,14,0.00,,,0.00,Wunderground v.1.15,2017-05-22 14:22:00,
2017-05-22 08:27:00,72.9,19.1,30.11,SE,129,0.0,10.0,13,0.00,,,0.00,Wunderground v.1.15,2017-05-22 14:27:00,
2017-05-22 08:33:00,73.9,19.9,30.11,SE,129,0.0,10.0,13,0.00,,,0.00,Wunderground v.1.15,2017-05-22 14:33:00,
2017-05-22 08:39:00,75.4,19.2,30.11,SE,129,0.0,10.0,12,0.00,,,0.00,Wunderground v.1.15,2017-05-22 14:39:00,
2017-05-22 08:45:00,76.1,19.8,30.11,SE,129,0.0,10.0,12,0.00,,,0.00,Wunderground v.1.15,2017-05-22 14:45:00,
2017-05-22 08:51:00,77.5,20.8,30.11,SE,129,0.0,10.0,12,0.00,,,0.00,Wunderground v.1.15,2017-05-22 14:51:00,
2017-05-22 08:57:00,77.1,20.5,30.11,North,3,0.0,10.0,12,0.00,,,0.00,Wunderground v.1.15,2017-05-22 14:57:00,
2017-05-22 09:03:00,76.7,20.2,30.11,NE,39,1.0,10.0,12,0.00,,,0.00,Wunderground v.1.15,2017-05-22 15:03:00,
2017-05-22 09:08:00,76.9,20.4,30.11,North,8,2.0,10.0,12,0.00,,,0.00,Wunderground v.1.15,2017-05-22 15:08:00,
2017-05-22 09:14:00,77.5,20.8,30.11,NE,38,1.0,10.0,12,0.00,,,0.00,Wunderground v.1.15,2017-05-22 15:14:00,
2017-05-22 09:20:00,77.5,20.8,30.11,North,357,2.0,2.0,12,0.00,,,0.00,Wunderground v.1.15,2017-05-22 15:20:00,
2017-05-22 09:26:00,77.8,21.1,30.11,North,356,3.0,10.0,12,0.00,,,0.00,Wunderground v.1.15,2017-05-22 15:26:00,
2017-05-22 09:32:00,78.1,21.3,30.11,North,359,3.0,10.0,12,0.00,,,0.00,Wunderground v.1.15,2017-05-22 15:32:00,
2017-05-22 09:37:00,78.5,23.5,30.11,North,354,2.0,10.0,13,0.00,,,0.00,Wunderground v.1.15,2017-05-22 15:37:00,
2017-05-22 09:43:00,79.0,23.9,30.11,NNE,31,3.0,10.0,13,0.00,,,0.00,Wunderground v.1.15,2017-05-22 15:43:00,
2017-05-22 09:49:00,79.6,22.5,30.11,NNW,333,3.0,10.0,12,0.00,,,0.00,Wunderground v.1.15,2017-05-22 15:49:00,
2017-05-22 09:55:00,80.1,22.9,30.11,NW,319,5.0,10.0,12,0.00,,,0.00,Wunderground v.1.15,2017-05-22 15:55:00,
2017-05-22 10:01:00,80.5,23.2,30.11,North,356,5.0,10.0,12,0.00,,,0.00,Wunderground v.1.15,2017-05-22 16:01:00,
2017-05-22 10:06:00,80.5,23.2,30.11,NW,319,5.0,10.0,12,0.00,,,0.00,Wunderground v.1.15,2017-05-22 16:06:00,
2017-05-22 10:11:00,80.8,23.4,30.11,NNE,30,5.0,10.0,12,0.00,,,0.00,Wunderground v.1.15,2017-05-22 16:11:00,
2017-05-22 10:17:00,80.9,23.5,30.11,NNW,339,5.0,10.0,12,0.00,,,0.00,Wunderground v.1.15,2017-05-22 16:17:00,
2017-05-22 10:23:00,81.5,24.0,30.11,WNW,296,6.0,10.0,12,0.00,,,0.00,Wunderground v.1.15,2017-05-22 16:23:00,
2017-05-22 10:29:00,81.9,24.3,30.11,NNW,333,7.0,10.0,12,0.00,,,0.00,Wunderground v.1.15,2017-05-22 16:29:00,
2017-05-22 10:35:00,82.2,24.5,30.11,North,9,7.0,13.0,12,0.00,,,0.00,Wunderground v.1.15,2017-05-22 16:35:00,
2017-05-22 10:41:00,82.5,22.7,30.11,NW,311,7.0,9.0,11,0.00,,,0.00,Wunderground v.1.15,2017-05-22 16:41:00,
2017-05-22 10:47:00,82.5,24.7,30.11,NW,313,6.0,10.0,12,0.00,,,0.00,Wunderground v.1.15,2017-05-22 16:47:00,
2017-05-22 10:52:00,82.8,22.9,30.11,NNW,335,7.0,10.0,11,0.00,,,0.00,Wunderground v.1.15,2017-05-22 16:52:00,
2017-05-22 10:58:00,83.1,23.1,30.11,NNE,13,8.0,10.0,11,0.00,,,0.00,Wunderground v.1.15,2017-05-22 16:58:00,
2017-05-22 11:04:00,83.3,23.3,30.11,North,8,8.0,11.0,11,0.00,,,0.00,Wunderground v.1.15,2017-05-22 17:04:00,
2017-05-22 11:10:00,83.3,23.3,30.11,NNW,347,8.0,10.0,11,0.00,,,0.00,Wunderground v.1.15,2017-05-22 17:10:00,
2017-05-22 11:16:00,83.8,23.7,30.10,North,350,8.0,10.0,11,0.00,,,0.00,Wunderground v.1.15,2017-05-22 17:16:00,
2017-05-22 11:21:00,83.6,23.5,30.10,NNW,328,7.0,10.0,11,0.00,,,0.00,Wunderground v.1.15,2017-05-22 17:21:00,
2017-05-22 11:27:00,84.2,24.0,30.10,North,9,8.0,13.0,11,0.00,,,0.00,Wunderground v.1.15,2017-05-22 17:27:00,
2017-05-22 11:33:00,84.3,24.0,30.10,NW,314,8.0,12.0,11,0.00,,,0.00,Wunderground v.1.15,2017-05-22 17:33:00,
2017-05-22 11:39:00,84.5,24.2,30.10,NNW,346,7.0,12.0,11,0.00,,,0.00,Wunderground v.1.15,2017-05-22 17:39:00,
2017-05-22 11:44:00,84.6,24.3,30.09,NW,326,7.0,10.0,11,0.00,,,0.00,Wunderground v.1.15,2017-05-22 17:44:00,
2017-05-22 11:50:00,85.0,24.6,30.09,WNW,285,6.0,6.0,11,0.00,,,0.00,Wunderground v.1.15,2017-05-22 17:50:00,
2017-05-22 11:56:00,85.4,22.6,30.09,North,7,6.0,10.0,10,0.00,,,0.00,Wunderground v.1.15,2017-05-22 17:56:00,
2017-05-22 12:02:00,85.3,22.5,30.09,ENE,59,5.0,10.0,10,0.00,,,0.00,Wunderground v.1.15,2017-05-22 18:02:00,
2017-05-22 12:08:00,85.9,23.0,30.09,NNE,19,5.0,10.0,10,0.00,,,0.00,Wunderground v.1.15,2017-05-22 18:08:00,
2017-05-22 12:13:00,86.0,23.1,30.09,NW,316,5.0,10.0,10,0.00,,,0.00,Wunderground v.1.15,2017-05-22 18:13:00,
2017-05-22 12:19:00,86.0,23.1,30.09,NNW,330,7.0,13.0,10,0.00,,,0.00,Wunderground v.1.15,2017-05-22 18:19:00,
2017-05-22 12:25:00,86.2,23.2,30.08,NW,304,7.0,11.0,10,0.00,,,0.00,Wunderground v.1.15,2017-05-22 18:25:00,
2017-05-22 12:31:00,86.8,23.7,30.08,NNW,347,6.0,8.0,10,0.00,,,0.00,Wunderground v.1.15,2017-05-22 18:31:00,
2017-05-22 12:37:00,86.9,23.8,30.08,NNE,17,5.0,10.0,10,0.00,,,0.00,Wunderground v.1.15,2017-05-22 18:37:00,
2017-05-22 12:38:00,87.0,23.8,30.08,NNE,28,5.0,10.0,10,0.00,,,0.00,Wunderground v.1.15,2017-05-22 18:38:00,
2017-05-22 12:43:00,86.9,23.8,30.08,NNE,32,6.0,10.0,10,0.00,,,0.00,Wunderground v.1.15,2017-05-22 18:43:00,
2017-05-22 12:49:00,87.0,21.3,30.08,NE,46,6.0,10.0,9,0.00,,,0.00,Wunderground v.1.15,2017-05-22 18:49:00,
2017-05-22 12:55:00,87.3,21.5,30.08,NNE,23,7.0,10.0,9,0.00,,,0.00,Wunderground v.1.15,2017-05-22 18:55:00,
2017-05-22 13:01:00,87.2,21.5,30.07,NNE,32,7.0,10.0,9,0.00,,,0.00,Wunderground v.1.15,2017-05-22 19:01:00,
2017-05-22 13:06:00,87.8,21.9,30.07,NNW,333,6.0,10.0,9,0.00,,,0.00,Wunderground v.1.15,2017-05-22 19:06:00,
2017-05-22 13:11:00,88.4,19.6,30.07,NW,318,8.0,12.0,8,0.00,,,0.00,Wunderground v.1.15,2017-05-22 19:11:00,
2017-05-22 13:17:00,88.5,19.7,30.07,NE,45,9.0,12.0,8,0.00,,,0.00,Wunderground v.1.15,2017-05-22 19:17:00,
2017-05-22 13:23:00,88.3,22.3,30.07,East,98,6.0,10.0,9,0.00,,,0.00,Wunderground v.1.15,2017-05-22 19:23:00,
2017-05-22 13:29:00,88.8,19.9,30.06,NNW,328,6.0,13.0,8,0.00,,,0.00,Wunderground v.1.15,2017-05-22 19:29:00,
2017-05-22 13:35:00,89.2,20.2,30.06,North,350,9.0,16.0,8,0.00,,,0.00,Wunderground v.1.15,2017-05-22 19:35:00,
2017-05-22 13:40:00,88.2,19.4,30.06,NNE,18,9.0,9.0,8,0.00,,,0.00,Wunderground v.1.15,2017-05-22 19:40:00,
2017-05-22 13:46:00,88.8,19.9,30.05,NW,326,5.0,10.0,8,0.00,,,0.00,Wunderground v.1.15,2017-05-22 19:46:00,
2017-05-22 13:52:00,89.2,20.2,30.05,North,11,6.0,10.0,8,0.00,,,0.00,Wunderground v.1.15,2017-05-22 19:52:00,
2017-05-22 13:58:00,89.0,20.0,30.05,ENE,73,9.0,12.0,8,0.00,,,0.00,Wunderground v.1.15,2017-05-22 19:58:00,
2017-05-22 14:04:00,90.2,20.9,30.05,North,357,8.0,10.0,8,0.00,,,0.00,Wunderground v.1.15,2017-05-22 20:04:00,
2017-05-22 14:09:00,90.4,21.1,30.04,NNW,347,8.0,10.0,8,0.00,,,0.00,Wunderground v.1.15,2017-05-22 20:09:00,
2017-05-22 14:15:00,90.0,20.8,30.04,NW,323,8.0,14.0,8,0.00,,,0.00,Wunderground v.1.15,2017-05-22 20:15:00,
2017-05-22 14:21:00,91.1,14.9,30.04,NW,311,11.0,14.0,6,0.00,,,0.00,Wunderground v.1.15,2017-05-22 20:21:00,
2017-05-22 14:27:00,91.1,14.9,30.04,NW,315,14.0,18.0,6,0.00,,,0.00,Wunderground v.1.15,2017-05-22 20:27:00,
2017-05-22 14:33:00,91.1,14.9,30.03,NW,321,14.0,16.0,6,0.00,,,0.00,Wunderground v.1.15,2017-05-22 20:33:00,
2017-05-22 14:39:00,91.4,11.0,30.03,WNW,285,14.0,19.0,5,0.00,,,0.00,Wunderground v.1.15,2017-05-22 20:39:00,
2017-05-22 14:44:00,91.0,10.7,30.03,WNW,295,16.0,18.0,5,0.00,,,0.00,Wunderground v.1.15,2017-05-22 20:44:00,
2017-05-22 14:50:00,91.6,11.1,30.02,WNW,300,14.0,19.0,5,0.00,,,0.00,Wunderground v.1.15,2017-05-22 20:50:00,
2017-05-22 14:56:00,91.8,6.3,30.02,WNW,302,13.0,19.0,4,0.00,,,0.00,Wunderground v.1.15,2017-05-22 20:56:00,
2017-05-22 15:02:00,91.6,15.2,30.03,WNW,301,14.0,20.0,6,0.00,,,0.00,Wunderground v.1.15,2017-05-22 21:02:00,
2017-05-22 15:07:00,91.4,15.1,30.02,West,279,15.0,20.0,6,0.00,,,0.00,Wunderground v.1.15,2017-05-22 21:07:00,
2017-05-22 15:13:00,91.4,15.1,30.02,NNW,337,12.0,14.0,6,0.00,,,0.00,Wunderground v.1.15,2017-05-22 21:13:00,
2017-05-22 15:19:00,92.2,11.5,30.01,WNW,283,13.0,17.0,5,0.00,,,0.00,Wunderground v.1.15,2017-05-22 21:19:00,
2017-05-22 15:24:00,91.7,11.2,30.02,NW,307,14.0,20.0,5,0.00,,,0.00,Wunderground v.1.15,2017-05-22 21:24:00,
2017-05-22 15:30:00,91.4,15.1,30.02,West,273,14.0,17.0,6,0.00,,,0.00,Wunderground v.1.15,2017-05-22 21:30:00,
2017-05-22 15:35:00,90.9,14.7,30.02,WSW,254,12.0,17.0,6,0.00,,,0.00,Wunderground v.1.15,2017-05-22 21:35:00,
2017-05-22 15:41:00,90.8,14.7,30.02,SW,233,10.0,11.0,6,0.00,,,0.00,Wunderground v.1.15,2017-05-22 21:41:00,
2017-05-22 15:47:00,92.5,11.7,30.01,West,271,9.0,16.0,5,0.00,,,0.00,Wunderground v.1.15,2017-05-22 21:47:00,
2017-05-22 15:53:00,91.8,15.4,30.01,West,263,13.0,15.0,6,0.00,,,0.00,Wunderground v.1.15,2017-05-22 21:53:00,
2017-05-22 15:59:00,91.3,15.0,30.01,West,278,11.0,15.0,6,0.00,,,0.00,Wunderground v.1.15,2017-05-22 21:59:00,
2017-05-22 16:05:00,91.0,14.8,30.01,WNW,295,8.0,10.0,6,0.00,,,0.00,Wunderground v.1.15,2017-05-22 22:05:00,
2017-05-22 16:11:00,91.6,15.2,30.01,West,276,12.0,12.0,6,0.00,,,0.00,Wunderground v.1.15,2017-05-22 22:11:00,
2017-05-22 16:17:00,91.2,15.0,30.00,WNW,289,12.0,13.0,6,0.00,,,0.00,Wunderground v.1.15,2017-05-22 22:17:00,
2017-05-22 16:23:00,91.1,14.9,30.00,NNW,334,8.0,14.0,6,0.00,,,0.00,Wunderground v.1.15,2017-05-22 22:23:00,
2017-05-22 16:29:00,91.2,15.0,30.00,West,264,6.0,14.0,6,0.00,,,0.00,Wunderground v.1.15,2017-05-22 22:29:00,
2017-05-22 16:34:00,91.6,15.2,29.99,WSW,239,7.0,12.0,6,0.00,,,0.00,Wunderground v.1.15,2017-05-22 22:34:00,
2017-05-22 16:40:00,91.5,15.2,30.00,NW,304,10.0,13.0,6,0.00,,,0.00,Wunderground v.1.15,2017-05-22 22:40:00,
2017-05-22 16:45:00,91.3,15.0,29.99,WSW,257,10.0,13.0,6,0.00,,,0.00,Wunderground v.1.15,2017-05-22 22:45:00,
2017-05-22 16:51:00,91.4,15.1,30.00,WNW,286,12.0,12.0,6,0.00,,,0.00,Wunderground v.1.15,2017-05-22 22:51:00,
2017-05-22 16:57:00,90.5,14.5,30.00,NW,321,11.0,13.0,6,0.00,,,0.00,Wunderground v.1.15,2017-05-22 22:57:00,
2017-05-22 17:03:00,91.4,18.7,29.99,NW,304,10.0,18.0,7,0.00,,,0.00,Wunderground v.1.15,2017-05-22 23:03:00,
2017-05-22 17:08:00,90.8,18.2,29.99,NW,326,12.0,18.0,7,0.00,,,0.00,Wunderground v.1.15,2017-05-22 23:08:00,
2017-05-22 17:14:00,90.9,18.3,29.99,NW,304,11.0,16.0,7,0.00,,,0.00,Wunderground v.1.15,2017-05-22 23:14:00,
2017-05-22 17:20:00,91.0,21.5,29.99,North,354,13.0,13.0,8,0.00,,,0.00,Wunderground v.1.15,2017-05-22 23:20:00,
2017-05-22 17:26:00,91.1,18.5,29.99,North,2,12.0,16.0,7,0.00,,,0.00,Wunderground v.1.15,2017-05-22 23:26:00,
2017-05-22 17:32:00,91.2,18.5,29.99,NW,317,10.0,11.0,7,0.00,,,0.00,Wunderground v.1.15,2017-05-22 23:32:00,
2017-05-22 17:37:00,91.7,15.3,29.99,NW,307,11.0,14.0,6,0.00,,,0.00,Wunderground v.1.15,2017-05-22 23:37:00,
2017-05-22 17:43:00,91.8,11.2,29.99,West,277,13.0,15.0,5,0.00,,,0.00,Wunderground v.1.15,2017-05-22 23:43:00,
2017-05-22 17:49:00,92.1,11.5,29.98,WNW,295,12.0,17.0,5,0.00,,,0.00,Wunderground v.1.15,2017-05-22 23:49:00,
2017-05-22 17:55:00,91.7,15.3,29.98,WNW,284,13.0,14.0,6,0.00,,,0.00,Wunderground v.1.15,2017-05-22 23:55:00,
2017-05-22 18:01:00,91.6,11.1,29.99,West,281,13.0,16.0,5,0.00,,,0.00,Wunderground v.1.15,2017-05-23 00:01:00,
2017-05-22 18:07:00,91.8,11.2,29.99,WNW,285,13.0,18.0,5,0.00,,,0.00,Wunderground v.1.15,2017-05-23 00:07:00,
2017-05-22 18:13:00,91.2,10.8,29.99,West,277,15.0,26.0,5,0.00,,,0.00,Wunderground v.1.15,2017-05-23 00:13:00,
2017-05-22 18:18:00,90.7,10.5,29.99,West,264,16.0,26.0,5,0.00,,,0.00,Wunderground v.1.15,2017-05-23 00:18:00,
2017-05-22 18:24:00,90.7,10.5,29.99,West,262,13.0,18.0,5,0.00,,,0.00,Wunderground v.1.15,2017-05-23 00:24:00,
2017-05-22 18:30:00,90.9,14.7,29.99,WNW,302,11.0,11.0,6,0.00,,,0.00,Wunderground v.1.15,2017-05-23 00:30:00,
2017-05-22 18:36:00,90.9,10.6,29.99,West,274,9.0,16.0,5,0.00,,,0.00,Wunderground v.1.15,2017-05-23 00:36:00,
2017-05-22 18:42:00,90.3,14.3,29.99,WNW,283,13.0,17.0,6,0.00,,,0.00,Wunderground v.1.15,2017-05-23 00:42:00,
2017-05-22 18:48:00,89.9,14.0,29.99,WNW,288,14.0,20.0,6,0.00,,,0.00,Wunderground v.1.15,2017-05-23 00:48:00,
2017-05-22 18:53:00,89.9,14.0,29.99,West,276,12.0,15.0,6,0.00,,,0.00,Wunderground v.1.15,2017-05-23 00:53:00,
2017-05-22 18:59:00,89.8,14.0,29.99,WNW,299,11.0,15.0,6,0.00,,,0.00,Wunderground v.1.15,2017-05-23 00:59:00,
2017-05-22 19:05:00,89.6,13.8,29.99,WNW,290,11.0,16.0,6,0.00,,,0.00,Wunderground v.1.15,2017-05-23 01:05:00,
2017-05-22 19:11:00,89.1,17.0,29.99,West,276,11.0,11.0,7,0.00,,,0.00,Wunderground v.1.15,2017-05-23 01:11:00,
2017-05-22 19:17:00,88.9,16.9,29.99,WNW,297,12.0,15.0,7,0.00,,,0.00,Wunderground v.1.15,2017-05-23 01:17:00,
2017-05-22 19:22:00,88.8,16.8,30.00,West,280,12.0,13.0,7,0.00,,,0.00,Wunderground v.1.15,2017-05-23 01:22:00,
2017-05-22 19:28:00,88.4,16.5,30.00,NW,307,12.0,16.0,7,0.00,,,0.00,Wunderground v.1.15,2017-05-23 01:28:00,
2017-05-22 19:34:00,88.0,16.2,30.00,WNW,295,13.0,14.0,7,0.00,,,0.00,Wunderground v.1.15,2017-05-23 01:34:00,
2017-05-22 19:40:00,87.5,15.8,30.00,NW,304,12.0,13.0,7,0.00,,,0.00,Wunderground v.1.15,2017-05-23 01:40:00,
2017-05-22 19:46:00,87.1,15.5,30.00,NW,310,12.0,13.0,7,0.00,,,0.00,Wunderground v.1.15,2017-05-23 01:46:00,
2017-05-22 19:52:00,86.6,15.2,30.00,NW,304,11.0,12.0,7,0.00,,,0.00,Wunderground v.1.15,2017-05-23 01:52:00,
2017-05-22 19:58:00,86.2,14.9,30.01,NW,314,12.0,14.0,7,0.00,,,0.00,Wunderground v.1.15,2017-05-23 01:58:00,
2017-05-22 20:03:00,85.7,14.5,30.01,NW,306,12.0,12.0,7,0.00,,,0.00,Wunderground v.1.15,2017-05-23 02:03:00,
2017-05-22 20:09:00,85.0,17.1,30.01,NW,308,9.0,12.0,8,0.00,,,0.00,Wunderground v.1.15,2017-05-23 02:09:00,
2017-05-22 20:15:00,84.0,16.3,30.01,WNW,294,7.0,10.0,8,0.00,,,0.00,Wunderground v.1.15,2017-05-23 02:15:00,
2017-05-22 20:21:00,82.9,15.5,30.02,WNW,295,5.0,10.0,8,0.00,,,0.00,Wunderground v.1.15,2017-05-23 02:21:00,
2017-05-22 20:27:00,82.1,17.6,30.02,West,280,4.0,10.0,9,0.00,,,0.00,Wunderground v.1.15,2017-05-23 02:27:00,
2017-05-22 20:32:00,81.7,17.3,30.02,WNW,303,5.0,10.0,9,0.00,,,0.00,Wunderground v.1.15,2017-05-23 02:32:00,
2017-05-22 20:38:00,81.5,17.2,30.02,WNW,294,5.0,10.0,9,0.00,,,0.00,Wunderground v.1.15,2017-05-23 02:38:00,
2017-05-22 20:44:00,80.8,16.7,30.02,NW,309,5.0,10.0,9,0.00,,,0.00,Wunderground v.1.15,2017-05-23 02:44:00,